SL-16 DEB, 22418

Orbit data source: Space-Track

SL-16 DEB, 22418 is space debris in LEO originally from a launch on Fri, 25 Dec 1992 UTC launched from the Tyuratam Missile And Space Complex (TTMTR). Debris objects in space refer to the collection of defunct objects orbiting the Earth. Examples of debris include non-operational satellites, rocket bodies, and fragments generated from explosions, collisions, or faulty payload assembly.

Loading next visibility...
Identifier
22418, 1992-093DK
Orbit
LEO
Country
Flag of CISCIS
Related business
Manufacturer
Unknown
Mission
Spacecraft
Bus & Motor
Unknown
Mass
Unknown
Launch date (UTC)
1992-12-25 (33 years ago)
Launch vehicle
Unknown
Launch site
Tyuratam Missile And Space Complex (TTMTR)
Object type
Payload
Rocket body
Debris
Shape & HBR
Unknown shape, 0.2 m
Radar Cross Section
Small (<0.1 m²)

Expand to show TLE details & history
Last TLE update: 6 hours ago

TLE from 6 hours ago
0 SL-16 DEB
1 22418U 92093DK  26037.52122278  .00001325  00000-0  78982-3 0  9995
2 22418  71.1236 206.2002 0126993 256.2694 160.8006 14.05154031687506
Epoch: 2026-02-06T12:30Z
TLE epoch observation values (Epoch: 2026-02-06T12:30:33.648Z)
Latitude
53.08683°
Longitude
-91.17372°
Altitude
971.27 km
Speed
7.327 km/s
True Right ascension
15h 32m 29s
True Declination
52° 55' 35"
Sunlit
Object was in daylight at epoch
Visualization orbit readout
Latitude
Unknown
Longitude
Unknown
Altitude
Unknown
Speed
Unknown
Apparent Right ascension
Unknown
Apparent Declination
Unknown
Sunlit
N/A
Visualization observer readout
Local Sidereal Time
20:40:14
Azimuth
Unknown
Elevation
Unknown
Doppler factor
Unknown
Orbital elements
Apogee altitude
966.02 km
Perigee altitude
781.828 km
Semi-major axis
7,252.061 km
Eccentricity
0.0127
Inclination
71.1236°
RAAN
206.2002°
Arg. of periapsis
256.2694°
True anomaly
161.27209°
Mean anomaly
160.8006°
Eccentric anomaly
161.03704°
Mean motion
3.5144 °/min
Orbital period
102.44 mins
BSTAR
0.00078982
Loading maneuver chart data...
Computing Atmospheric mass density...

Documentation

Showing up to 5 results
|